TimeMST,TemperatureF,Dew PointF,Humidity,Sea Level PressureIn,VisibilityMPH,Wind Direction,Wind SpeedMPH,Gust SpeedMPH,PrecipitationIn,Events,Conditions,WindDirDegrees,DateUTC
12:12 AM,5.0,3.2,92,29.46,-9999.0,North,-9999.0,-,N/A,,Overcast,0,2013-12-08 07:12:00
12:32 AM,5.0,3.2,92,29.47,-9999.0,North,-9999.0,-,0.01,,Overcast,0,2013-12-08 07:32:00
12:52 AM,5.0,3.2,92,29.46,-9999.0,North,-9999.0,-,0.02,,Overcast,0,2013-12-08 07:52:00
1:12 AM,5.0,3.2,92,29.45,-9999.0,SW,36.8,-,N/A,,Overcast,220,2013-12-08 08:12:00
1:32 AM,5.0,3.2,92,29.44,-9999.0,North,-9999.0,-,0.01,,Overcast,0,2013-12-08 08:32:00
1:52 AM,5.0,3.2,92,29.43,-9999.0,North,-9999.0,-,0.03,,Overcast,0,2013-12-08 08:52:00
2:12 AM,5.0,3.2,92,29.44,-9999.0,North,-9999.0,-,0.02,,Overcast,0,2013-12-08 09:12:00
2:32 AM,5.0,3.2,92,29.41,-9999.0,North,-9999.0,-,0.03,,Overcast,0,2013-12-08 09:32:00
2:52 AM,5.0,3.2,92,29.45,-9999.0,SSW,32.2,-,0.03,,Overcast,210,2013-12-08 09:52:00
3:12 AM,3.2,1.4,92,29.45,-9999.0,SW,34.5,-,N/A,,Overcast,230,2013-12-08 10:12:00
3:32 AM,3.2,1.4,92,29.45,-9999.0,SW,32.2,51.8,N/A,,Overcast,220,2013-12-08 10:32:00
3:52 AM,3.2,1.4,92,29.45,-9999.0,SW,40.3,58.7,N/A,,Overcast,230,2013-12-08 10:52:00
4:12 AM,3.2,1.4,92,29.44,-9999.0,SW,34.5,57.5,N/A,,Overcast,230,2013-12-08 11:12:00
4:32 AM,3.2,1.4,92,29.43,-9999.0,SW,34.5,51.8,N/A,,Overcast,230,2013-12-08 11:32:00
4:52 AM,3.2,-0.4,85,29.43,-9999.0,SW,44.9,58.7,N/A,,Overcast,220,2013-12-08 11:52:00
5:12 AM,1.4,-0.4,92,29.42,-9999.0,SW,39.1,56.4,N/A,,Overcast,230,2013-12-08 12:12:00
5:32 AM,1.4,-0.4,92,29.42,-9999.0,SW,40.3,-,N/A,,Overcast,230,2013-12-08 12:32:00
5:51 AM,-0.4,-2.2,92,29.41,-9999.0,North,-9999.0,-,N/A,,Overcast,0,2013-12-08 12:51:00
6:12 AM,-0.4,-4.0,85,29.42,-9999.0,North,-9999.0,-,N/A,,Unknown,0,2013-12-08 13:12:00
6:32 AM,-2.2,-5.8,85,29.44,-9999.0,North,-9999.0,-,N/A,,Unknown,0,2013-12-08 13:32:00
6:52 AM,-4.0,-5.8,92,29.46,-9999.0,North,-9999.0,-,N/A,,Unknown,0,2013-12-08 13:52:00
7:12 AM,-4.0,-7.6,85,29.46,-9999.0,North,-9999.0,-,N/A,,Unknown,0,2013-12-08 14:12:00
7:32 AM,-4.0,-7.6,85,29.49,-9999.0,North,-9999.0,-,N/A,,Unknown,0,2013-12-08 14:32:00
7:52 AM,-4.0,-7.6,85,29.50,-9999.0,North,-9999.0,-,N/A,,Unknown,0,2013-12-08 14:52:00
8:12 AM,-4.0,-7.6,85,29.50,-9999.0,SW,36.8,-,N/A,,Overcast,230,2013-12-08 15:12:00
8:32 AM,-4.0,-7.6,85,29.52,-9999.0,SW,39.1,-,N/A,,Unknown,220,2013-12-08 15:32:00
8:52 AM,-4.0,-7.6,85,29.53,-9999.0,North,-9999.0,-,N/A,,Overcast,0,2013-12-08 15:52:00
9:12 AM,-4.0,-7.6,85,29.56,-9999.0,North,-9999.0,-,N/A,,Overcast,0,2013-12-08 16:12:00
9:32 AM,-4.0,-7.6,85,29.57,-9999.0,SW,21.9,-,N/A,,Overcast,220,2013-12-08 16:32:00
9:52 AM,-4.0,-7.6,85,29.59,-9999.0,SW,20.7,27.6,N/A,,Overcast,230,2013-12-08 16:52:00
10:12 AM,-4.0,-7.6,85,29.60,-9999.0,SW,20.7,-,N/A,,Overcast,230,2013-12-08 17:12:00
10:32 AM,-4.0,-5.8,92,29.61,-9999.0,SW,15.0,26.5,N/A,,Overcast,230,2013-12-08 17:32:00
10:52 AM,-4.0,-5.8,92,29.61,-9999.0,SW,13.8,21.9,N/A,,Overcast,230,2013-12-08 17:52:00
11:12 AM,-2.2,-5.8,85,29.62,-9999.0,SSW,15.0,24.2,N/A,,Overcast,210,2013-12-08 18:12:00
11:32 AM,-4.0,-5.8,92,29.62,-9999.0,South,9.2,25.3,0.01,,Overcast,190,2013-12-08 18:32:00
11:52 AM,-4.0,-5.8,92,29.63,-9999.0,SSW,12.7,23.0,0.01,,Overcast,210,2013-12-08 18:52:00
12:12 PM,-4.0,-5.8,92,29.62,-9999.0,SW,15.0,24.2,N/A,,Overcast,220,2013-12-08 19:12:00
12:32 PM,-4.0,-5.8,92,29.62,-9999.0,SW,20.7,27.6,0.01,,Overcast,230,2013-12-08 19:32:00
12:52 PM,-4.0,-5.8,92,29.61,-9999.0,SW,20.7,32.2,0.01,,Overcast,220,2013-12-08 19:52:00
1:12 PM,-2.2,-5.8,85,29.62,-9999.0,SW,20.7,28.8,N/A,,Overcast,220,2013-12-08 20:12:00
1:32 PM,-2.2,-5.8,85,29.62,-9999.0,SW,16.1,27.6,N/A,,Overcast,230,2013-12-08 20:32:00
1:52 PM,-2.2,-5.8,85,29.62,-9999.0,SW,21.9,36.8,N/A,,Overcast,220,2013-12-08 20:52:00
2:12 PM,-2.2,-5.8,85,29.61,-9999.0,SSW,12.7,31.1,N/A,,Overcast,210,2013-12-08 21:12:00
2:32 PM,-4.0,-5.8,92,29.61,-9999.0,SW,25.3,35.7,0.01,,Overcast,220,2013-12-08 21:32:00
2:52 PM,-4.0,-5.8,92,29.61,-9999.0,SSW,23.0,34.5,0.01,,Overcast,210,2013-12-08 21:52:00
3:12 PM,-4.0,-5.8,92,29.63,-9999.0,SW,21.9,34.5,N/A,,Overcast,220,2013-12-08 22:12:00
3:31 PM,-4.0,-7.6,85,29.63,-9999.0,SW,24.2,35.7,N/A,,Overcast,220,2013-12-08 22:31:00
3:52 PM,-4.0,-7.6,85,29.63,-9999.0,SW,28.8,39.1,N/A,,Overcast,220,2013-12-08 22:52:00
4:12 PM,-4.0,-7.6,85,29.63,-9999.0,SW,29.9,40.3,N/A,,Overcast,230,2013-12-08 23:12:00
4:32 PM,-4.0,-7.6,85,29.62,-9999.0,North,-9999.0,-,N/A,,Overcast,0,2013-12-08 23:32:00
4:52 PM,-5.8,-7.6,92,29.62,-9999.0,SW,26.5,36.8,N/A,,Overcast,220,2013-12-08 23:52:00
5:12 PM,-7.6,-9.4,92,29.62,-9999.0,North,-9999.0,-,N/A,,Unknown,0,2013-12-09 00:12:00
5:32 PM,-5.8,-9.4,84,29.63,-9999.0,SW,28.8,-,N/A,,Overcast,220,2013-12-09 00:32:00
5:52 PM,-7.6,-9.4,92,29.63,-9999.0,SW,32.2,41.4,N/A,,Overcast,220,2013-12-09 00:52:00
6:12 PM,-5.8,-9.4,84,29.64,-9999.0,North,-9999.0,-,N/A,,Overcast,0,2013-12-09 01:12:00
6:32 PM,-5.8,-9.4,84,29.64,-9999.0,North,-9999.0,-,N/A,,Overcast,0,2013-12-09 01:32:00
6:52 PM,-5.8,-9.4,84,29.65,-9999.0,SW,27.6,-,N/A,,Overcast,220,2013-12-09 01:52:00
7:12 PM,-7.6,-9.4,92,29.66,-9999.0,SW,26.5,32.2,N/A,,Overcast,220,2013-12-09 02:12:00
7:32 PM,-7.6,-9.4,92,29.66,-9999.0,SW,21.9,-,N/A,,Overcast,220,2013-12-09 02:32:00
7:52 PM,-7.6,-9.4,92,29.66,-9999.0,SW,20.7,-,N/A,,Overcast,220,2013-12-09 02:52:00
8:12 PM,-7.6,-9.4,92,29.66,-9999.0,SW,19.6,31.1,N/A,,Overcast,220,2013-12-09 03:12:00
8:32 PM,-7.6,-11.2,84,29.66,-9999.0,SW,26.5,29.9,N/A,,Overcast,220,2013-12-09 03:32:00
8:52 PM,-7.6,-11.2,84,29.66,-9999.0,SW,21.9,-,N/A,,Overcast,230,2013-12-09 03:52:00
9:12 PM,-7.6,-13.0,77,29.66,-9999.0,SW,21.9,29.9,N/A,,Overcast,220,2013-12-09 04:12:00
9:32 PM,-9.4,-13.0,84,29.67,-9999.0,SW,24.2,-,N/A,,Mostly Cloudy,220,2013-12-09 04:32:00
9:52 PM,-9.4,-13.0,84,29.67,-9999.0,North,-9999.0,-,N/A,,Unknown,0,2013-12-09 04:52:00
10:12 PM,-9.4,-14.8,77,29.67,-9999.0,SW,21.9,-,N/A,,Unknown,220,2013-12-09 05:12:00
10:32 PM,-9.4,-14.8,77,29.68,-9999.0,North,-9999.0,-,N/A,,Unknown,0,2013-12-09 05:32:00
10:52 PM,-9.4,-14.8,77,29.68,-9999.0,North,-9999.0,-,N/A,,Unknown,0,2013-12-09 05:52:00
11:12 PM,-9.4,-14.8,77,29.68,-9999.0,North,-9999.0,-,N/A,,Unknown,0,2013-12-09 06:12:00
11:32 PM,-9.4,-14.8,77,29.68,-9999.0,North,-9999.0,-,N/A,,Unknown,0,2013-12-09 06:32:00
11:52 PM,-9.4,-14.8,77,29.68,-9999.0,SW,20.7,-,N/A,,Unknown,220,2013-12-09 06:52:00